TimeMDT,TemperatureF,Dew PointF,Humidity,Sea Level PressureIn,VisibilityMPH,Wind Direction,Wind SpeedMPH,Gust SpeedMPH,PrecipitationIn,Events,Conditions,WindDirDegrees,DateUTC
12:28 AM,64.4,60.8,88,30.10,10.0,NW,15.0,21.9,0.01,Rain-Thunderstorm,Light Thunderstorms and Rain,320,2013-09-08 06:28:00
12:34 AM,64.4,60.8,88,30.07,2.5,East,6.9,21.9,0.10,Rain-Thunderstorm,Heavy Thunderstorms and Rain,80,2013-09-08 06:34:00
12:42 AM,62.6,60.8,94,30.06,3.0,SE,6.9,-,0.13,Rain-Thunderstorm,Light Rain,140,2013-09-08 06:42:00
12:53 AM,63.0,61.0,93,29.98,7.0,SE,16.1,-,0.15,Rain-Thunderstorm,Thunderstorms and Rain,130,2013-09-08 06:53:00
1:11 AM,62.6,60.8,94,30.03,5.0,SSE,11.5,25.3,0.06,Rain-Thunderstorm,Thunderstorms and Rain,160,2013-09-08 07:11:00
1:22 AM,62.6,60.8,94,30.01,-9999.0,SE,18.4,-,0.13,Thunderstorm,Thunderstorm,140,2013-09-08 07:22:00
1:47 AM,62.6,62.6,100,30.05,2.0,South,11.5,20.7,0.33,Rain-Thunderstorm,Heavy Rain,170,2013-09-08 07:47:00
1:53 AM,63.0,62.1,97,29.98,3.0,SSE,12.7,20.7,0.35,Rain-Thunderstorm,Rain,150,2013-09-08 07:53:00
2:04 AM,62.6,62.6,100,30.09,1.8,SSW,11.5,-,0.21,Rain-Thunderstorm,Heavy Thunderstorms and Rain,200,2013-09-08 08:04:00
2:24 AM,64.4,62.6,94,30.00,2.0,SSE,15.0,-,0.58,Rain-Thunderstorm,Heavy Thunderstorms and Rain,150,2013-09-08 08:24:00
2:33 AM,62.6,62.6,100,29.99,9.0,SSE,15.0,23.0,0.58,Rain-Thunderstorm,Light Rain,150,2013-09-08 08:33:00
2:53 AM,63.0,62.1,97,29.93,10.0,SE,11.5,24.2,0.58,,Partly Cloudy,140,2013-09-08 08:53:00
3:00 AM,62.6,62.6,100,29.99,10.0,ESE,10.4,-,N/A,Thunderstorm,Scattered Clouds,120,2013-09-08 09:00:00
3:34 AM,62.6,62.6,100,29.98,9.0,ESE,12.7,-,0.02,Rain-Thunderstorm,Light Rain,120,2013-09-08 09:34:00
3:51 AM,64.4,62.6,94,30.00,10.0,Variable,3.5,-,0.02,Thunderstorm,Overcast,0,2013-09-08 09:51:00
3:53 AM,64.0,63.0,96,29.96,10.0,NNW,5.8,-,0.02,Thunderstorm,Overcast,340,2013-09-08 09:53:00
4:19 AM,62.6,62.6,100,30.10,4.0,West,11.5,-,0.07,Rain-Thunderstorm,Heavy Rain,280,2013-09-08 10:19:00
4:31 AM,62.6,62.6,100,30.08,8.0,NW,11.5,-,0.09,Rain,Light Rain,310,2013-09-08 10:31:00
4:44 AM,62.6,60.8,94,30.08,10.0,WNW,8.1,-,0.09,Rain,Light Rain,290,2013-09-08 10:44:00
4:53 AM,63.0,61.0,93,30.03,9.0,West,5.8,-,0.10,Rain,Light Rain,270,2013-09-08 10:53:00
4:58 AM,62.6,60.8,94,30.07,2.5,Calm,Calm,-,0.04,Rain,Heavy Rain,0,2013-09-08 10:58:00
5:06 AM,62.6,60.8,94,30.07,1.5,Calm,Calm,-,0.08,Rain,Rain,0,2013-09-08 11:06:00
5:10 AM,62.6,60.8,94,30.07,3.0,Calm,Calm,-,0.08,Rain,Light Rain,0,2013-09-08 11:10:00
5:20 AM,62.6,60.8,94,30.07,1.8,WNW,3.5,-,0.15,Rain,Heavy Rain,290,2013-09-08 11:20:00
5:28 AM,62.6,60.8,94,30.06,2.5,WNW,3.5,-,0.18,Rain,Heavy Rain,300,2013-09-08 11:28:00
5:35 AM,62.6,60.8,94,30.07,3.0,Calm,Calm,-,0.20,Rain,Rain,0,2013-09-08 11:35:00
5:53 AM,63.0,61.0,93,30.03,5.0,West,4.6,-,0.24,Rain,Light Rain,280,2013-09-08 11:53:00
6:11 AM,62.6,62.6,100,30.08,6.0,Calm,Calm,-,0.02,Rain-Thunderstorm,Light Rain,0,2013-09-08 12:11:00
6:26 AM,62.6,62.6,100,30.07,6.0,SE,6.9,-,0.04,Rain,Rain,130,2013-09-08 12:26:00
6:53 AM,63.0,62.1,97,29.97,7.0,East,13.8,-,0.08,Rain,Light Rain,100,2013-09-08 12:53:00
7:02 AM,62.6,62.6,100,30.01,10.0,ESE,16.1,-,0.00,Rain-Thunderstorm,Light Rain,110,2013-09-08 13:02:00
7:20 AM,62.6,62.6,100,30.03,10.0,SSE,10.4,-,0.00,Thunderstorm,Overcast,160,2013-09-08 13:20:00
7:53 AM,63.0,61.0,93,29.96,10.0,SE,12.7,-,0.03,Rain,Light Rain,140,2013-09-08 13:53:00
8:53 AM,64.0,61.0,90,29.95,10.0,SE,4.6,-,0.00,,Clear,130,2013-09-08 14:53:00
9:53 AM,73.0,64.0,73,29.93,10.0,SSE,9.2,-,N/A,,Clear,160,2013-09-08 15:53:00
10:53 AM,75.9,61.0,60,29.92,10.0,SE,10.4,-,N/A,,Clear,140,2013-09-08 16:53:00
11:53 AM,78.1,63.0,60,29.91,10.0,SSE,11.5,-,N/A,,Clear,160,2013-09-08 17:53:00
12:53 PM,78.1,64.0,62,29.90,10.0,SSE,10.4,18.4,N/A,,Overcast,150,2013-09-08 18:53:00
1:53 PM,77.0,64.0,64,29.89,10.0,SE,10.4,-,N/A,,Overcast,140,2013-09-08 19:53:00
2:53 PM,79.0,64.9,62,29.86,10.0,ESE,6.9,-,N/A,,Mostly Cloudy,110,2013-09-08 20:53:00
3:53 PM,78.1,64.9,64,29.83,10.0,ESE,10.4,-,N/A,,Partly Cloudy,120,2013-09-08 21:53:00
4:53 PM,80.1,64.9,60,29.81,10.0,ESE,10.4,-,N/A,,Clear,110,2013-09-08 22:53:00
5:53 PM,77.0,64.0,64,29.81,10.0,SE,10.4,-,N/A,,Mostly Cloudy,130,2013-09-08 23:53:00
6:53 PM,73.0,64.9,76,29.80,10.0,ESE,8.1,-,N/A,,Clear,120,2013-09-09 00:53:00
7:53 PM,71.1,64.9,81,29.79,10.0,East,9.2,-,N/A,,Partly Cloudy,100,2013-09-09 01:53:00
8:53 PM,70.0,64.9,84,29.77,10.0,East,9.2,-,N/A,,Clear,100,2013-09-09 02:53:00
9:22 PM,69.8,64.4,83,29.83,10.0,SE,5.8,-,N/A,,Mostly Cloudy,130,2013-09-09 03:22:00
9:53 PM,70.0,64.9,84,29.78,10.0,SSE,3.5,-,N/A,,Overcast,160,2013-09-09 03:53:00
10:07 PM,69.8,66.2,88,29.82,9.0,SE,4.6,-,0.01,Rain-Thunderstorm,Light Rain,130,2013-09-09 04:07:00
10:27 PM,69.8,66.2,88,29.82,6.0,Calm,Calm,-,0.04,Rain,Light Rain,0,2013-09-09 04:27:00
10:35 PM,69.8,66.2,88,29.82,4.0,East,3.5,-,0.07,Rain-Thunderstorm,Rain,90,2013-09-09 04:35:00
10:53 PM,69.1,66.0,90,29.75,4.0,ENE,3.5,-,0.11,Rain-Thunderstorm,Thunderstorms and Rain,70,2013-09-09 04:53:00
11:00 PM,68.0,66.2,94,29.82,3.0,Calm,Calm,-,0.02,Rain-Thunderstorm,Thunderstorms and Rain,0,2013-09-09 05:00:00
11:07 PM,68.0,66.2,94,29.84,1.8,SSW,25.3,34.5,0.11,Rain-Thunderstorm,Heavy Thunderstorms and Rain,200,2013-09-09 05:07:00
11:16 PM,64.4,62.6,94,29.80,0.8,SSW,11.5,34.5,0.45,Rain-Thunderstorm,Heavy Thunderstorms and Rain,210,2013-09-09 05:16:00
11:21 PM,66.2,64.4,94,29.78,2.5,SW,10.4,-,0.45,Rain-Thunderstorm,Thunderstorms and Rain,230,2013-09-09 05:21:00
11:23 PM,66.2,64.4,94,29.78,5.0,SSW,11.5,-,0.45,Rain-Thunderstorm,Light Thunderstorms and Rain,210,2013-09-09 05:23:00
11:53 PM,66.9,66.0,97,29.72,10.0,ESE,6.9,-,0.46,Rain-Thunderstorm,Light Rain,120,2013-09-09 05:53:00